CZ-3C DEB, 39350

Orbit data source: Space-Track

CZ-3C DEB, 39350 is space debris in HEO originally from a launch on Sun, 31 Oct 2010 UTC launched from the Xichang Space Center, China (XSC). Debris objects in space refer to the collection of defunct objects orbiting the Earth. Examples of debris include non-operational satellites, rocket bodies, and fragments generated from explosions, collisions, or faulty payload assembly.

Loading next visibility...
Identifier
39350, 2010-057Q
Orbit
HEO
Country
Flag of CNCN / PRC
Related business
Manufacturer
CALT
Mission
Spacecraft
Bus & Motor
Unknown
Mass
Unknown
Launch date (UTC)
2010-10-31 (15 years ago)
Launch vehicle
Unknown
Launch site
Xichang Space Center, China (XSC)
Object type
Payload
Rocket body
Debris
Shape & HBR
Unknown shape, 0.3 m
Radar Cross Section
Medium (>0.1 m² and <1 m²)

Expand to show TLE details & history
Last TLE update: 3 days ago

TLE from 3 days ago
0 CZ-3C DEB
1 39350U 10057Q   26059.93726773  .00000049  00000-0  46381-3 0  9997
2 39350  20.1886  81.5857 7208460 199.0346 350.1566  2.22922674 97558
Epoch: 2026-02-28T22:29Z
TLE epoch observation values (Epoch: 2026-02-28T22:29:39.931Z)
Latitude
15.6826°
Longitude
76.00588°
Altitude
3,206.645 km
Speed
8.19 km/s
True Right ascension
14h 08m 41s
True Declination
15° 36' 58"
Sunlit
Object was in daylight at epoch
Visualization orbit readout
Latitude
Unknown
Longitude
Unknown
Altitude
Unknown
Speed
Unknown
Apparent Right ascension
Unknown
Apparent Declination
Unknown
Sunlit
N/A
Visualization observer readout
Local Sidereal Time
16:46:18
Azimuth
Unknown
Elevation
Unknown
Doppler factor
Unknown
Orbital elements
Apogee altitude
36,225.986 km
Perigee altitude
533.063 km
Semi-major axis
24,757.662 km
Eccentricity
0.72085
Inclination
20.1886°
RAAN
81.5857°
Arg. of periapsis
199.0346°
True anomaly
290.35695°
Mean anomaly
350.1566°
Eccentric anomaly
328.69926°
Mean motion
0.55716 °/min
Orbital period
646.14 mins
BSTAR
0.00046381
Loading maneuver chart data...
Computing Atmospheric mass density...
Loading historical data...
Loading historical data...
Loading historical data...
Loading historical data...
Loading historical data...
Loading historical data...
Loading historical data...

Documentation

Showing up to 5 results
|